Showing default

NANOSAT C BR1, 40024

Orbit data source: Space-Track

NANOSAT C BR1, 40024 is a Brazilian payload satellite in SSO that was launched on Thu, 19 Jun 2014 UTC via a DNEPR launch vehicle from the Orenburg, Russia (OREN). Payload-class satellites include a variety of spacecraft equipped with specific instruments for various scientific and technological missions. These include communications satellites like Starlink; space stations such as the ISS; scientific satellites like the Hubble; Earth observation satellites from companies like Planet Labs, Umbra, and HawkEye 360; GPS; miniature CubeSats for education and research; and military/defense satellites.

Loading next visibility...
Identifier
40024, 2014-033Q
Orbit
SSO
Country
Flag of UnknownUnknown / BRAZ
Related business
Manufacturer
INPES/UFSM
Mission
Operational Commercial Science
Bus & Motor
CUBESAT 1U, Unknown motor
Mass
1 kg wet, 1 kg dry
Launch date (UTC)
2014-06-19 (11 years ago)
Launch vehicle
DNEPR
Launch site
Orenburg, Russia (OREN)
Object type
Payload
Rocket body
Debris
Shape & HBR
Box, 0.1 m
Radar Cross Section
0.015 m², Small (<0.1 m²)

Expand to show TLE details & history
Last TLE update: 19 hours ago

TLE from 19 hours ago
0 NANOSAT C BR1
1 40024U 14033Q   25338.58600823  .00033986  00000-0  13915-2 0  9994
2 40024  98.0897 349.5994 0005301 124.9633 235.2101 15.24220628624269
Epoch: 2025-12-04T14:03Z
TLE epoch observation values (Epoch: 2025-12-04T14:03:51.111Z)
Latitude
0.00002°
Longitude
64.99611°
Altitude
498.282 km
Speed
7.614 km/s
True Right ascension
23h 18m 23s
True Declination
0° 00' 00"
Sunlit
Object was in daylight at epoch
Visualization orbit readout
Latitude
Unknown
Longitude
Unknown
Altitude
Unknown
Speed
Unknown
Apparent Right ascension
Unknown
Apparent Declination
Unknown
Sunlit
N/A
Visualization observer readout
Local Sidereal Time
07:27:51
Azimuth
Unknown
Elevation
Unknown
Doppler factor
Unknown
Orbital elements
Apogee altitude
493.758 km
Perigee altitude
486.477 km
Semi-major axis
6,868.255 km
Eccentricity
0.00053
Inclination
98.0897°
RAAN
349.5994°
Arg. of periapsis
124.9633°
True anomaly
235.16023°
Mean anomaly
235.2101°
Eccentric anomaly
235.18516°
Mean motion
3.81306 °/min
Orbital period
94.41 mins
BSTAR
0.0013915
Loading maneuver chart data...
Computing Atmospheric mass density...

Documentation

Showing up to 5 results
|